Temp
-12 -12 -12 -12 -11 -11 -11 -11 -12 -12 -13 -13 -13 -14 -15 -15 -15 -14 -14 -14 -15 -17 -17 -17 -17 -18 -18 -18 -18 -18 -18 -19 -19 -19 -19 -19 -19 -18 -19 -19 -19 -19 -19 -19 -19 -19 -18 -17 -16 -16 -15 -14 -13 -12 -12 -12 -11 -10 -10 -9 -9 -9 -8 -8 -8 -7 -7 -6 -5 -4 -4 -2 0 0
-12 -12 -12 -12 -12 -11 -12 -12 -12 -13 -13 -13 -14 -14 -15 -16 -16 -17 -16 -14 -15 -16 -17 -17 -18 -18 -18 -18 -18 -18 -18 -19 -19 -19 -19 -19 -19 -19 -18 -18 -19 -19 -19 -19 -19 -18 -18 -17 -16 -16 -15 -14 -13 -12 -12 -12 -11 -10 -10 -10 -9 -9 -9 -8 -8 -8 -7 -6 -5 -4 -4 -3 -1 0
-13 -13 -12 -12 -12 -12 -12 -12 -12 -13 -13 -14 -14 -15 -16 -17 -17 -18 -18 -16 -15 -16 -17 -17 -18 -18 -18 -18 -18 -18 -18 -19 -19 -19 -19 -19 -19 -19 -18 -18 -18 -18 -18 -19 -19 -18 -18 -17 -17 -16 -15 -14 -13 -12 -12 -12 -11 -11 -10 -10 -10 -9 -9 -9 -8 -8 -7 -7 -6 -5 -5 -4 -2 -1
-13 -13 -13 -12 -12 -12 -12 -12 -13 -13 -14 -14 -15 -15 -16 -17 -17 -18 -19 -17 -15 -16 -17 -17 -17 -18 -18 -18 -18 -18 -18 -19 -19 -19 -18 -18 -18 -18 -18 -18 -18 -18 -18 -18 -18 -18 -18 -18 -17 -16 -15 -14 -14 -13 -12 -12 -12 -11 -10 -10 -10 -9 -9 -9 -8 -8 -8 -7 -7 -6 -5 -4 -3 -2
-13 -13 -13 -12 -12 -12 -12 -12 -13 -14 -14 -15 -15 -16 -16 -17 -18 -18 -19 -18 -16 -16 -17 -17 -17 -18 -18 -18 -18 -18 -18 -18 -18 -18 -18 -18 -18 -18 -18 -18 -19 -19 -18 -18 -18 -18 -18 -18 -17 -17 -16 -15 -14 -13 -12 -12 -12 -11 -11 -10 -10 -10 -9 -9 -9 -8 -8 -8 -8 -7 -6 -4 -3 -3
-13 -13 -13 -13 -13 -13 -13 -13 -13 -14 -15 -15 -15 -16 -17 -17 -18 -19 -19 -18 -17 -16 -16 -17 -17 -18 -18 -18 -18 -19 -18 -18 -18 -18 -18 -19 -19 -19 -18 -18 -19 -19 -19 -18 -18 -18 -18 -18 -18 -17 -16 -15 -14 -13 -13 -12 -12 -12 -11 -10 -10 -10 -10 -9 -9 -8 -8 -8 -8 -7 -6 -5 -4 -3
-13 -13 -13 -13 -13 -13 -13 -13 -14 -14 -15 -15 -16 -16 -17 -17 -18 -19 -19 -19 -18 -17 -16 -17 -17 -18 -18 -18 -18 -19 -18 -18 -18 -18 -18 -19 -19 -19 -19 -18 -19 -19 -19 -19 -18 -18 -18 -18 -18 -17 -16 -16 -15 -14 -13 -12 -12 -11 -11 -10 -10 -10 -10 -10 -9 -8 -8 -7 -7 -7 -6 -5 -4 -3
-13 -13 -13 -13 -13 -13 -13 -13 -14 -15 -15 -16 -16 -16 -17 -18 -18 -18 -19 -19 -19 -18 -16 -16 -17 -18 -18 -18 -18 -18 -18 -18 -18 -18 -18 -19 -19 -19 -19 -19 -19 -19 -19 -19 -19 -18 -18 -18 -18 -18 -17 -16 -15 -14 -13 -12 -12 -11 -11 -10 -10 -10 -10 -9 -9 -9 -8 -7 -7 -6 -6 -5 -4 -3
-13 -13 -13 -13 -13 -13 -13 -14 -14 -15 -15 -16 -16 -17 -17 -18 -18 -18 -19 -19 -19 -18 -17 -17 -17 -18 -18 -18 -18 -18 -18 -18 -19 -19 -18 -18 -18 -18 -19 -19 -19 -19 -19 -19 -19 -19 -18 -18 -18 -18 -17 -16 -15 -14 -13 -12 -12 -11 -11 -10 -10 -10 -10 -9 -9 -9 -8 -8 -7 -7 -6 -6 -5 -4
-13 -13 -13 -13 -13 -13 -13 -14 -14 -15 -16 -16 -16 -17 -17 -18 -18 -18 -19 -19 -19 -19 -18 -17 -17 -18 -18 -18 -18 -18 -19 -18 -18 -18 -18 -18 -18 -18 -19 -19 -19 -19 -19 -19 -19 -19 -18 -18 -18 -18 -17 -16 -15 -14 -13 -13 -12 -11 -11 -10 -10 -10 -10 -9 -9 -9 -9 -8 -8 -7 -6 -6 -6 -4
-13 -13 -13 -13 -13 -13 -14 -14 -14 -15 -16 -16 -16 -17 -17 -18 -18 -18 -19 -19 -19 -19 -18 -18 -18 -17 -18 -18 -18 -18 -19 -19 -19 -19 -18 -18 -18 -18 -18 -18 -19 -19 -19 -19 -19 -18 -18 -18 -18 -18 -17 -17 -16 -14 -13 -13 -12 -12 -11 -10 -10 -10 -10 -9 -8 -9 -9 -9 -8 -8 -7 -6 -6 -5
-14 -13 -13 -14 -13 -14 -14 -14 -15 -15 -16 -16 -16 -17 -17 -18 -18 -18 -18 -19 -19 -19 -18 -18 -18 -17 -17 -18 -18 -18 -19 -19 -18 -19 -19 -18 -18 -18 -18 -18 -19 -19 -18 -19 -18 -18 -18 -18 -18 -18 -17 -17 -16 -15 -14 -13 -12 -12 -11 -10 -10 -10 -10 -9 -8 -8 -9 -9 -9 -8 -8 -7 -6 -4
-14 -14 -14 -14 -14 -14 -14 -14 -15 -16 -16 -16 -16 -17 -17 -18 -18 -18 -18 -18 -18 -19 -18 -18 -18 -17 -17 -18 -18 -18 -19 -19 -18 -18 -19 -19 -19 -18 -18 -18 -19 -19 -18 -18 -18 -18 -18 -18 -18 -17 -17 -17 -16 -15 -14 -13 -12 -12 -11 -10 -10 -10 -10 -9 -8 -8 -9 -9 -9 -8 -8 -7 -6 -4
-14 -14 -14 -14 -14 -14 -14 -15 -15 -16 -16 -16 -16 -17 -18 -18 -18 -18 -18 -18 -18 -18 -18 -18 -18 -17 -17 -18 -19 -19 -19 -19 -18 -19 -19 -19 -19 -19 -18 -18 -18 -19 -19 -18 -17 -18 -18 -18 -17 -17 -17 -17 -16 -15 -14 -13 -12 -12 -11 -10 -10 -10 -10 -9 -9 -8 -8 -9 -9 -8 -7 -7 -6 -5
-14 -14 -14 -14 -14 -14 -15 -15 -15 -16 -16 -16 -17 -17 -18 -18 -18 -18 -18 -18 -18 -18 -18 -18 -18 -18 -18 -18 -19 -19 -19 -19 -18 -19 -19 -19 -19 -19 -18 -17 -18 -19 -19 -18 -17 -17 -18 -18 -17 -17 -17 -17 -16 -15 -14 -13 -12 -12 -11 -10 -10 -10 -10 -9 -9 -8 -8 -8 -8 -8 -7 -7 -6 -5
-14 -14 -14 -14 -14 -15 -15 -15 -15 -16 -16 -17 -17 -17 -18 -18 -19 -19 -19 -19 -19 -18 -18 -18 -18 -19 -18 -18 -19 -20 -19 -19 -18 -18 -19 -19 -19 -19 -18 -18 -18 -18 -19 -18 -17 -17 -17 -18 -17 -17 -17 -17 -16 -15 -14 -13 -12 -12 -11 -10 -10 -10 -9 -9 -9 -8 -8 -8 -8 -8 -7 -7 -6 -5
-14 -14 -14 -14 -14 -15 -15 -15 -15 -15 -16 -17 -17 -18 -18 -18 -19 -19 -19 -19 -19 -19 -19 -18 -18 -19 -18 -18 -19 -20 -20 -19 -18 -18 -18 -19 -19 -19 -19 -18 -18 -18 -19 -18 -17 -17 -17 -18 -17 -17 -17 -17 -16 -15 -14 -13 -12 -12 -11 -11 -10 -10 -9 -9 -9 -8 -8 -8 -8 -8 -7 -7 -6 -6
-14 -14 -14 -14 -14 -15 -15 -15 -15 -15 -16 -17 -17 -18 -18 -18 -19 -19 -20 -20 -19 -19 -19 -19 -18 -19 -19 -19 -19 -20 -19 -19 -18 -18 -18 -18 -19 -18 -18 -18 -18 -18 -19 -18 -17 -17 -17 -18 -17 -17 -17 -17 -16 -16 -15 -13 -12 -12 -11 -11 -10 -10 -9 -9 -9 -8 -8 -8 -8 -7 -7 -7 -7 -6
-14 -14 -14 -14 -15 -15 -15 -15 -15 -16 -16 -17 -17 -17 -18 -18 -19 -19 -20 -20 -19 -19 -19 -19 -19 -19 -19 -20 -19 -19 -19 -18 -17 -18 -18 -18 -19 -18 -18 -18 -18 -18 -19 -19 -18 -18 -18 -18 -18 -17 -17 -17 -16 -15 -15 -13 -12 -12 -11 -11 -10 -10 -9 -9 -8 -8 -8 -8 -7 -7 -7 -7 -7 -6
-14 -15 -14 -15 -15 -15 -15 -15 -16 -16 -16 -17 -17 -17 -18 -18 -19 -19 -19 -19 -19 -19 -19 -19 -19 -19 -20 -20 -20 -19 -19 -18 -17 -18 -18 -19 -19 -18 -18 -18 -18 -18 -19 -19 -19 -19 -19 -19 -19 -17 -17 -17 -16 -15 -15 -13 -12 -11 -11 -11 -10 -9 -9 -9 -8 -8 -8 -8 -7 -7 -7 -7 -7 -6
-15 -15 -15 -15 -15 -15 -15 -16 -16 -16 -16 -16 -17 -17 -17 -18 -18 -19 -19 -19 -19 -19 -19 -19 -19 -20 -20 -20 -19 -19 -18 -18 -18 -18 -18 -18 -19 -18 -18 -18 -18 -18 -18 -19 -20 -20 -20 -20 -19 -18 -17 -17 -16 -15 -14 -13 -12 -11 -11 -11 -10 -9 -9 -9 -8 -8 -8 -8 -7 -7 -7 -7 -7 -7
-15 -15 -15 -15 -15 -15 -16 -16 -16 -16 -16 -17 -17 -17 -17 -18 -18 -18 -19 -19 -19 -19 -19 -20 -20 -20 -20 -19 -19 -18 -18 -18 -18 -18 -18 -18 -18 -18 -18 -18 -18 -18 -18 -19 -20 -21 -21 -20 -19 -18 -17 -17 -16 -15 -14 -13 -12 -11 -11 -11 -10 -9 -9 -9 -8 -8 -8 -8 -7 -7 -7 -7 -7 -7
-15 -15 -15 -15 -15 -16 -16 -16 -16 -17 -17 -17 -17 -17 -17 -17 -17 -18 -18 -19 -19 -19 -20 -20 -20 -20 -19 -19 -18 -18 -18 -18 -18 -18 -18 -18 -18 -18 -18 -18 -18 -18 -18 -19 -20 -21 -21 -20 -19 -18 -18 -17 -16 -16 -15 -14 -13 -12 -11 -11 -10 -9 -9 -9 -8 -8 -8 -8 -7 -7 -7 -7 -7 -7
-15 -15 -15 -15 -15 -16 -16 -16 -16 -17 -17 -17 -17 -17 -17 -17 -18 -18 -18 -19 -19 -19 -19 -19 -19 -19 -19 -19 -18 -18 -18 -19 -18 -18 -18 -18 -18 -18 -18 -18 -18 -18 -18 -19 -20 -20 -20 -20 -19 -18 -18 -17 -16 -16 -15 -14 -13 -12 -11 -11 -10 -9 -9 -9 -8 -8 -8 -8 -7 -7 -7 -7 -7 -7
-15 -15 -15 -16 -16 -16 -16 -16 -17 -17 -17 -17 -17 -17 -18 -18 -18 -19 -19 -19 -19 -19 -19 -19 -19 -19 -19 -19 -18 -18 -18 -18 -18 -18 -18 -18 -18 -18 -18 -17 -18 -18 -19 -19 -19 -20 -20 -20 -19 -18 -18 -17 -17 -16 -15 -14 -13 -12 -11 -11 -10 -10 -9 -9 -8 -8 -8 -8 -7 -7 -7 -7 -7 -6
-16 -16 -16 -16 -16 -16 -17 -17 -17 -17 -17 -17 -18 -18 -18 -18 -18 -19 -19 -19 -19 -19 -19 -19 -19 -19 -19 -19 -19 -19 -18 -18 -18 -18 -18 -18 -18 -18 -17 -17 -17 -18 -19 -19 -19 -19 -19 -20 -19 -18 -18 -18 -17 -17 -15 -14 -13 -12 -11 -11 -10 -10 -10 -9 -9 -8 -8 -8 -7 -7 -7 -7 -6 -6
-16 -16 -16 -16 -16 -17 -17 -17 -17 -17 -17 -18 -18 -18 -18 -18 -18 -19 -19 -19 -19 -19 -19 -19 -19 -19 -19 -19 -19 -18 -18 -18 -18 -18 -18 -18 -17 -17 -17 -17 -17 -17 -18 -18 -18 -18 -19 -20 -19 -18 -18 -18 -18 -17 -15 -14 -13 -12 -11 -11 -10 -10 -10 -9 -9 -8 -8 -8 -7 -7 -7 -7 -7 -6
-16 -16 -16 -16 -17 -17 -17 -17 -17 -17 -18 -18 -18 -18 -18 -18 -19 -19 -19 -19 -20 -20 -20 -20 -19 -19 -19 -19 -18 -18 -18 -18 -18 -18 -18 -17 -17 -16 -16 -16 -16 -16 -17 -17 -18 -18 -19 -19 -19 -18 -18 -18 -18 -17 -15 -14 -13 -13 -12 -11 -11 -10 -10 -9 -9 -8 -8 -8 -8 -7 -7 -7 -7 -6
-16 -16 -16 -16 -17 -17 -17 -17 -17 -17 -18 -18 -18 -18 -18 -19 -19 -19 -19 -20 -20 -20 -20 -20 -20 -19 -19 -19 -18 -18 -18 -18 -18 -18 -18 -18 -17 -17 -16 -16 -16 -16 -16 -16 -16 -17 -18 -18 -18 -18 -18 -18 -18 -17 -16 -14 -14 -13 -12 -11 -11 -10 -10 -10 -9 -9 -8 -8 -8 -7 -7 -7 -7 -6
-16 -16 -16 -17 -17 -17 -17 -17 -17 -18 -18 -18 -18 -18 -19 -19 -19 -19 -19 -20 -20 -20 -20 -20 -20 -20 -20 -19 -19 -19 -18 -18 -18 -18 -18 -18 -18 -17 -16 -16 -16 -16 -16 -16 -15 -16 -17 -17 -18 -18 -18 -17 -17 -16 -15 -14 -14 -14 -13 -12 -11 -10 -10 -10 -9 -9 -9 -8 -8 -7 -7 -7 -7 -7
-16 -16 -17 -17 -17 -17 -17 -17 -18 -18 -18 -18 -18 -18 -19 -19 -19 -19 -19 -20 -20 -20 -20 -20 -20 -20 -20 -20 -19 -19 -18 -18 -18 -18 -18 -18 -18 -18 -17 -16 -16 -16 -16 -15 -15 -16 -16 -16 -17 -17 -16 -16 -16 -16 -15 -15 -14 -14 -14 -13 -12 -11 -10 -10 -10 -9 -9 -8 -8 -8 -7 -7 -7 -7
-16 -16 -17 -17 -17 -17 -17 -18 -18 -18 -18 -18 -18 -18 -19 -19 -19 -19 -19 -20 -20 -20 -20 -20 -20 -20 -20 -20 -20 -19 -19 -18 -18 -18 -18 -18 -18 -18 -17 -17 -16 -16 -15 -15 -15 -15 -15 -15 -15 -15 -15 -15 -15 -15 -15 -15 -14 -14 -14 -14 -13 -12 -11 -10 -10 -9 -9 -8 -8 -8 -7 -7 -7 -7
-16 -17 -17 -17 -17 -17 -18 -18 -18 -19 -18 -18 -18 -18 -19 -19 -19 -19 -20 -20 -20 -20 -20 -20 -20 -20 -20 -20 -20 -20 -19 -19 -18 -18 -17 -18 -18 -18 -17 -17 -16 -16 -16 -15 -15 -15 -15 -15 -14 -15 -15 -15 -15 -15 -15 -14 -14 -14 -13 -14 -13 -12 -11 -10 -10 -9 -9 -8 -8 -8 -7 -7 -7 -7
-16 -17 -17 -17 -17 -18 -18 -18 -19 -19 -18 -18 -18 -19 -19 -19 -19 -20 -20 -20 -20 -20 -20 -20 -20 -20 -20 -20 -20 -20 -20 -19 -19 -18 -18 -18 -18 -17 -17 -17 -17 -16 -16 -16 -16 -16 -15 -15 -14 -14 -14 -14 -14 -14 -14 -14 -14 -13 -13 -13 -13 -12 -11 -10 -10 -9 -9 -8 -8 -8 -8 -7 -7 -7
-17 -17 -17 -17 -18 -18 -18 -18 -19 -19 -18 -18 -18 -19 -19 -19 -19 -20 -20 -20 -20 -20 -20 -20 -20 -20 -20 -20 -20 -20 -20 -19 -19 -19 -18 -18 -18 -17 -17 -17 -17 -16 -16 -16 -16 -16 -15 -15 -14 -14 -14 -14 -14 -14 -14 -14 -13 -13 -13 -13 -13 -12 -11 -10 -10 -10 -9 -9 -8 -8 -8 -8 -8 -8
-17 -17 -17 -17 -18 -18 -18 -18 -19 -19 -19 -19 -19 -19 -19 -19 -20 -20 -20 -20 -20 -20 -20 -20 -20 -20 -20 -20 -20 -20 -20 -19 -19 -19 -19 -18 -18 -18 -17 -17 -17 -17 -16 -16 -16 -15 -15 -15 -14 -14 -14 -14 -14 -13 -13 -13 -13 -13 -13 -13 -13 -12 -12 -11 -11 -10 -10 -9 -9 -8 -8 -8 -8 -8
-17 -17 -17 -17 -18 -18 -18 -19 -19 -19 -19 -19 -19 -19 -20 -20 -20 -20 -20 -20 -20 -20 -20 -20 -20 -20 -20 -20 -20 -20 -20 -19 -19 -19 -19 -18 -18 -18 -17 -17 -17 -17 -17 -16 -16 -16 -15 -15 -14 -14 -14 -14 -13 -13 -13 -13 -13 -13 -13 -12 -13 -13 -12 -11 -11 -11 -10 -10 -9 -9 -9 -8 -8 -9
-17 -17 -17 -17 -18 -18 -18 -19 -19 -19 -19 -19 -19 -20 -20 -20 -20 -20 -20 -20 -20 -20 -20 -20 -20 -20 -20 -20 -20 -20 -20 -20 -19 -19 -19 -18 -18 -18 -18 -17 -17 -17 -17 -17 -17 -16 -15 -15 -14 -14 -14 -14 -13 -13 -13 -13 -13 -13 -13 -13 -13 -13 -12 -12 -12 -11 -11 -10 -9 -9 -9 -9 -9 -9
-17 -17 -17 -17 -18 -18 -18 -19 -19 -19 -20 -20 -20 -20 -20 -20 -20 -20 -20 -20 -20 -20 -20 -20 -20 -20 -20 -20 -20 -20 -20 -20 -20 -19 -19 -18 -18 -18 -18 -18 -18 -17 -17 -17 -17 -17 -16 -15 -15 -14 -14 -14 -14 -13 -13 -13 -13 -13 -13 -13 -13 -13 -13 -13 -13 -12 -12 -11 -10 -10 -9 -9 -9 -9
-17 -17 -17 -18 -18 -18 -19 -19 -19 -20 -20 -20 -20 -20 -20 -20 -20 -20 -20 -20 -20 -20 -20 -20 -20 -20 -20 -20 -20 -20 -20 -20 -20 -20 -19 -19 -19 -18 -18 -18 -18 -18 -17 -17 -17 -17 -16 -16 -15 -14 -14 -14 -14 -14 -13 -13 -13 -13 -13 -12 -13 -13 -13 -13 -13 -13 -13 -12 -11 -11 -11 -10 -10 -10
-17 -18 -18 -18 -18 -19 -19 -19 -19 -20 -20 -20 -20 -20 -20 -20 -20 -20 -20 -20 -20 -20 -20 -20 -20 -20 -20 -20 -20 -20 -20 -20 -20 -20 -20 -19 -19 -19 -18 -18 -18 -18 -17 -17 -17 -17 -16 -16 -15 -15 -15 -14 -14 -14 -14 -13 -13 -13 -13 -13 -13 -13 -13 -13 -13 -13 -13 -13 -13 -12 -12 -11 -11 -11
-17 -18 -18 -18 -18 -19 -19 -19 -19 -20 -20 -20 -20 -20 -20 -20 -20 -20 -20 -20 -20 -20 -20 -20 -20 -20 -20 -20 -20 -20 -20 -20 -20 -20 -20 -20 -20 -19 -19 -18 -18 -17 -17 -17 -17 -17 -16 -16 -16 -16 -15 -15 -15 -14 -14 -14 -14 -13 -13 -13 -13 -13 -13 -13 -13 -13 -13 -13 -13 -13 -12 -12 -12 -11
-17 -18 -18 -18 -18 -19 -19 -19 -19 -20 -20 -20 -20 -20 -20 -20 -20 -20 -20 -20 -20 -20 -20 -20 -20 -20 -20 -20 -20 -20 -20 -20 -20 -20 -20 -20 -20 -19 -19 -19 -19 -18 -18 -18 -17 -17 -17 -17 -17 -16 -16 -16 -16 -15 -15 -14 -14 -14 -13 -13 -13 -13 -13 -13 -13 -13 -13 -13 -13 -13 -13 -13 -13 -12
-17 -18 -18 -18 -18 -19 -19 -19 -20 -20 -20 -20 -20 -20 -20 -20 -21 -20 -20 -20 -20 -20 -20 -20 -20 -20 -20 -20 -20 -20 -20 -20 -20 -20 -20 -20 -20 -20 -20 -20 -19 -19 -19 -19 -18 -18 -18 -17 -17 -17 -16 -16 -16 -16 -15 -15 -15 -14 -14 -14 -13 -13 -13 -13 -13 -12 -12 -12 -12 -13 -13 -13 -12 -12
-18 -18 -18 -18 -18 -19 -19 -19 -20 -20 -20 -20 -20 -20 -20 -20 -21 -21 -21 -20 -20 -20 -20 -20 -20 -20 -20 -20 -20 -20 -20 -20 -20 -20 -20 -20 -20 -20 -20 -20 -20 -20 -20 -20 -19 -19 -18 -18 -17 -17 -17 -16 -16 -16 -16 -16 -15 -15 -15 -14 -14 -13 -13 -13 -13 -12 -12 -12 -12 -12 -12 -12 -12 -12
Height
2874 2872 2871 2869 2867 2864 2861 2859 2856 2853 2849 2846 2842 2839 2835 2829 2823 2818 2815 2817 2818 2815 2813 2811 2809 2807 2804 2801 2798 2795 2791 2788 2784 2780 2778 2774 2772 2769 2767 2766 2765 2764 2764 2762 2762 2762 2763 2764 2765 2767 2769 2772 2775 2777 2778 2784 2788 2791 2796 2803 2808 2813 2818 2822 2825 2828 2831 2836 2842 2846 2849 2852 2859 2867
2870 2868 2867 2865 2862 2860 2857 2854 2851 2848 2845 2842 2838 2835 2831 2826 2820 2815 2809 2809 2813 2811 2809 2808 2806 2803 2800 2796 2794 2791 2787 2784 2780 2776 2774 2771 2768 2765 2763 2761 2760 2759 2759 2758 2757 2757 2758 2759 2760 2762 2764 2767 2770 2772 2774 2778 2783 2785 2788 2795 2800 2805 2812 2816 2820 2822 2825 2829 2834 2840 2845 2849 2855 2861
2866 2864 2862 2860 2858 2855 2852 2849 2846 2843 2840 2838 2835 2831 2827 2822 2818 2813 2807 2804 2807 2807 2805 2804 2803 2799 2796 2792 2789 2786 2782 2779 2776 2772 2770 2767 2764 2761 2759 2757 2755 2754 2753 2753 2753 2753 2753 2754 2755 2757 2759 2762 2765 2768 2770 2773 2778 2781 2782 2787 2793 2798 2804 2809 2813 2817 2820 2824 2828 2834 2841 2845 2850 2854
2861 2860 2858 2856 2853 2850 2847 2845 2842 2839 2837 2833 2830 2826 2822 2818 2815 2811 2805 2800 2801 2803 2801 2799 2798 2796 2792 2788 2785 2782 2778 2775 2772 2769 2766 2762 2759 2757 2755 2753 2751 2749 2748 2748 2748 2748 2748 2749 2750 2752 2754 2756 2759 2761 2763 2766 2771 2775 2777 2781 2786 2790 2796 2802 2807 2811 2815 2819 2824 2829 2836 2841 2844 2848
2856 2855 2853 2851 2848 2845 2843 2841 2838 2835 2832 2829 2826 2822 2818 2815 2811 2807 2802 2797 2797 2798 2797 2795 2794 2792 2787 2784 2782 2778 2774 2771 2767 2764 2760 2757 2754 2752 2750 2748 2747 2745 2744 2743 2743 2743 2743 2744 2744 2746 2748 2749 2752 2755 2757 2760 2765 2770 2772 2775 2780 2785 2790 2796 2801 2805 2809 2813 2818 2823 2830 2836 2839 2842
2852 2850 2849 2847 2844 2841 2839 2836 2834 2831 2828 2825 2821 2818 2814 2811 2808 2804 2799 2794 2793 2793 2792 2790 2789 2787 2783 2780 2778 2774 2769 2765 2762 2758 2755 2752 2750 2747 2745 2744 2743 2741 2739 2738 2738 2738 2738 2739 2739 2740 2742 2744 2746 2749 2752 2754 2759 2764 2767 2770 2775 2780 2785 2790 2795 2799 2803 2807 2811 2817 2825 2833 2836 2838
2847 2845 2844 2842 2839 2836 2834 2832 2829 2826 2824 2821 2817 2814 2810 2807 2804 2800 2795 2792 2790 2788 2788 2786 2784 2782 2779 2776 2773 2769 2764 2759 2756 2752 2750 2749 2746 2744 2741 2740 2738 2737 2735 2734 2733 2733 2733 2734 2734 2735 2736 2738 2741 2744 2747 2750 2754 2759 2763 2766 2771 2775 2780 2786 2790 2795 2799 2802 2806 2812 2820 2827 2833 2835
2843 2841 2839 2837 2835 2832 2830 2828 2825 2822 2819 2816 2813 2810 2807 2803 2800 2796 2792 2789 2787 2785 2783 2782 2780 2777 2775 2772 2769 2765 2758 2754 2751 2749 2747 2745 2743 2741 2738 2735 2734 2732 2731 2730 2729 2729 2729 2729 2730 2730 2731 2733 2736 2739 2742 2746 2750 2754 2759 2763 2767 2772 2777 2782 2787 2790 2795 2798 2802 2808 2815 2822 2828 2832
2838 2836 2835 2833 2830 2828 2826 2823 2821 2818 2815 2812 2809 2806 2803 2800 2796 2792 2789 2786 2784 2781 2779 2778 2776 2773 2771 2768 2765 2760 2754 2749 2747 2745 2743 2742 2739 2737 2734 2732 2729 2727 2726 2725 2724 2724 2724 2724 2724 2725 2727 2728 2731 2734 2738 2742 2745 2749 2754 2759 2763 2768 2773 2778 2782 2786 2790 2794 2798 2803 2809 2817 2824 2828
2833 2832 2830 2828 2826 2823 2821 2819 2816 2813 2811 2808 2805 2803 2800 2796 2792 2788 2785 2782 2780 2779 2776 2774 2772 2769 2767 2764 2760 2756 2751 2746 2743 2740 2738 2737 2736 2732 2730 2728 2725 2723 2721 2719 2719 2718 2718 2718 2719 2720 2721 2723 2725 2729 2732 2737 2741 2745 2750 2754 2758 2763 2768 2773 2778 2782 2786 2790 2794 2799 2804 2811 2818 2824
2828 2827 2825 2823 2821 2819 2817 2815 2812 2809 2807 2804 2802 2799 2796 2793 2789 2785 2782 2779 2777 2775 2773 2771 2768 2765 2763 2759 2755 2752 2748 2743 2741 2736 2731 2731 2731 2728 2725 2723 2721 2719 2716 2714 2713 2712 2712 2712 2713 2714 2716 2717 2720 2724 2727 2732 2736 2741 2745 2750 2754 2758 2763 2768 2773 2777 2782 2786 2790 2795 2799 2805 2813 2818
2823 2822 2821 2819 2817 2815 2813 2811 2808 2805 2803 2800 2798 2796 2793 2789 2785 2781 2778 2776 2773 2771 2769 2767 2764 2761 2758 2755 2752 2749 2745 2740 2738 2735 2729 2725 2725 2722 2719 2718 2716 2713 2710 2708 2707 2707 2706 2706 2707 2709 2710 2713 2715 2718 2722 2727 2732 2736 2741 2745 2749 2753 2758 2763 2768 2772 2776 2781 2786 2791 2796 2801 2807 2813
2819 2818 2817 2815 2813 2811 2809 2807 2804 2802 2799 2796 2794 2792 2789 2785 2781 2777 2774 2772 2769 2767 2765 2762 2760 2757 2754 2752 2748 2745 2741 2737 2733 2732 2727 2723 2720 2716 2713 2711 2711 2707 2703 2702 2701 2701 2700 2700 2701 2703 2705 2707 2710 2713 2717 2722 2727 2731 2736 2740 2744 2747 2752 2757 2762 2767 2771 2776 2781 2787 2792 2797 2802 2808
2815 2814 2813 2812 2810 2807 2805 2803 2801 2798 2795 2792 2789 2787 2784 2780 2776 2772 2770 2768 2765 2763 2760 2758 2756 2753 2750 2748 2745 2741 2737 2734 2730 2728 2724 2719 2716 2712 2707 2705 2705 2702 2697 2694 2693 2694 2694 2693 2695 2697 2699 2702 2704 2707 2712 2717 2722 2727 2731 2736 2740 2743 2747 2752 2757 2761 2766 2771 2777 2782 2788 2793 2798 2804
2810 2810 2809 2808 2806 2804 2801 2799 2797 2794 2792 2789 2786 2783 2780 2776 2772 2768 2765 2763 2761 2758 2756 2754 2752 2750 2746 2744 2742 2738 2733 2730 2728 2725 2721 2716 2711 2708 2702 2698 2698 2696 2691 2687 2686 2687 2687 2687 2688 2690 2694 2697 2699 2702 2706 2711 2716 2721 2726 2731 2736 2740 2743 2748 2752 2757 2761 2766 2772 2778 2784 2789 2793 2799
2806 2806 2805 2804 2802 2800 2798 2795 2793 2791 2789 2786 2783 2781 2777 2774 2770 2766 2762 2760 2757 2755 2752 2749 2748 2747 2743 2739 2737 2734 2730 2726 2724 2721 2717 2713 2708 2703 2698 2693 2691 2690 2686 2682 2681 2681 2681 2680 2681 2684 2688 2691 2693 2696 2700 2705 2710 2716 2721 2727 2732 2736 2740 2745 2749 2753 2757 2762 2769 2774 2779 2784 2789 2795
2802 2802 2801 2800 2799 2797 2794 2792 2790 2788 2786 2784 2781 2778 2775 2772 2768 2764 2760 2757 2755 2752 2748 2745 2744 2743 2739 2735 2733 2731 2727 2723 2720 2717 2713 2709 2703 2698 2694 2689 2687 2685 2681 2677 2675 2675 2676 2675 2674 2678 2682 2684 2687 2690 2694 2699 2705 2710 2716 2722 2728 2732 2737 2742 2746 2750 2754 2759 2765 2771 2775 2780 2785 2791
2798 2798 2797 2797 2795 2793 2791 2789 2787 2784 2783 2781 2778 2775 2772 2769 2765 2761 2758 2755 2753 2750 2747 2743 2741 2740 2737 2732 2729 2728 2725 2720 2716 2712 2707 2703 2698 2693 2690 2687 2684 2681 2677 2672 2669 2669 2671 2670 2669 2672 2676 2678 2680 2684 2688 2693 2699 2705 2711 2718 2724 2729 2734 2739 2743 2747 2751 2756 2761 2767 2771 2776 2782 2787
2794 2794 2793 2793 2792 2790 2788 2785 2783 2781 2779 2777 2775 2772 2769 2766 2763 2759 2756 2753 2751 2748 2746 2742 2739 2736 2734 2730 2727 2725 2722 2717 2712 2707 2702 2698 2693 2689 2687 2684 2680 2676 2672 2668 2664 2663 2666 2666 2664 2666 2669 2671 2673 2678 2682 2687 2694 2700 2707 2714 2720 2725 2730 2735 2740 2744 2749 2754 2758 2763 2768 2773 2778 2783
2790 2790 2790 2789 2788 2786 2784 2782 2780 2778 2776 2774 2771 2769 2766 2763 2760 2757 2753 2751 2749 2746 2743 2740 2736 2733 2731 2728 2725 2722 2718 2713 2708 2703 2699 2695 2690 2686 2683 2680 2676 2672 2668 2664 2659 2657 2660 2661 2658 2659 2662 2664 2667 2672 2676 2682 2689 2695 2702 2709 2716 2722 2727 2732 2737 2741 2746 2751 2756 2760 2764 2769 2774 2780
2786 2786 2786 2785 2784 2783 2781 2779 2777 2775 2772 2770 2768 2765 2763 2760 2757 2755 2752 2748 2746 2743 2740 2737 2733 2730 2728 2726 2723 2720 2715 2710 2705 2700 2696 2692 2688 2683 2679 2675 2672 2668 2664 2661 2656 2653 2654 2654 2652 2653 2656 2658 2661 2666 2672 2678 2684 2691 2698 2705 2712 2718 2723 2728 2734 2738 2743 2748 2753 2757 2761 2766 2771 2776
2783 2783 2783 2782 2780 2779 2777 2776 2774 2772 2769 2767 2765 2762 2759 2757 2755 2752 2750 2747 2744 2741 2738 2734 2732 2729 2726 2724 2721 2717 2712 2707 2702 2697 2693 2690 2685 2681 2676 2671 2667 2664 2661 2657 2653 2650 2649 2649 2648 2649 2651 2654 2658 2663 2668 2674 2681 2687 2694 2701 2709 2715 2720 2725 2730 2735 2740 2745 2750 2755 2759 2763 2767 2772
2780 2780 2779 2778 2777 2776 2775 2773 2772 2769 2766 2765 2762 2759 2757 2755 2752 2750 2747 2744 2742 2739 2737 2734 2731 2729 2725 2722 2718 2714 2709 2704 2700 2695 2692 2688 2683 2678 2673 2668 2664 2661 2658 2654 2650 2647 2645 2645 2645 2646 2648 2651 2655 2659 2664 2670 2676 2683 2691 2698 2705 2712 2717 2722 2727 2732 2737 2742 2747 2752 2756 2760 2763 2768
2777 2777 2776 2775 2774 2773 2772 2771 2769 2766 2764 2762 2760 2758 2755 2752 2749 2747 2744 2742 2740 2738 2735 2733 2731 2728 2725 2720 2716 2711 2706 2702 2698 2694 2690 2686 2681 2676 2671 2666 2662 2658 2656 2652 2648 2645 2644 2643 2642 2644 2646 2648 2652 2655 2660 2665 2671 2678 2687 2694 2702 2709 2714 2719 2724 2729 2734 2739 2744 2749 2753 2757 2760 2765
2773 2774 2774 2772 2771 2770 2770 2768 2766 2764 2763 2761 2758 2755 2752 2749 2747 2745 2742 2740 2738 2735 2733 2731 2728 2725 2722 2718 2713 2709 2705 2700 2696 2692 2688 2684 2680 2674 2669 2664 2660 2657 2654 2651 2648 2645 2644 2642 2642 2643 2645 2647 2650 2653 2657 2662 2668 2675 2683 2691 2699 2705 2710 2716 2721 2727 2731 2736 2741 2746 2750 2754 2758 2763
2770 2771 2771 2769 2769 2768 2767 2766 2764 2763 2761 2759 2756 2753 2751 2748 2746 2744 2741 2739 2736 2733 2730 2727 2724 2721 2718 2715 2711 2708 2704 2700 2695 2690 2686 2683 2679 2673 2667 2663 2659 2656 2653 2650 2648 2646 2645 2643 2641 2642 2645 2647 2649 2652 2655 2660 2667 2674 2681 2689 2696 2701 2707 2713 2719 2724 2729 2734 2739 2744 2749 2753 2757 2762
2768 2768 2768 2767 2766 2766 2765 2764 2762 2761 2759 2757 2754 2752 2750 2748 2745 2743 2740 2737 2733 2730 2728 2725 2722 2719 2716 2713 2710 2707 2704 2699 2694 2689 2685 2681 2677 2672 2667 2663 2659 2656 2653 2651 2648 2647 2645 2643 2642 2642 2645 2647 2649 2652 2656 2661 2667 2673 2680 2687 2693 2698 2704 2710 2716 2721 2726 2732 2737 2742 2747 2751 2754 2759
2765 2765 2765 2764 2764 2764 2763 2762 2760 2759 2757 2755 2753 2751 2749 2747 2744 2741 2738 2735 2732 2729 2727 2724 2721 2718 2715 2712 2709 2706 2702 2698 2693 2688 2683 2679 2676 2672 2667 2663 2660 2657 2655 2652 2650 2648 2646 2644 2642 2643 2646 2649 2651 2653 2657 2662 2667 2673 2680 2686 2691 2696 2702 2708 2714 2719 2724 2729 2734 2739 2743 2747 2751 2755
2762 2762 2762 2762 2763 2762 2761 2760 2758 2757 2755 2754 2752 2750 2748 2746 2743 2740 2737 2734 2731 2729 2726 2723 2720 2717 2714 2710 2707 2704 2700 2697 2693 2689 2684 2680 2677 2673 2668 2664 2661 2659 2656 2653 2650 2649 2648 2646 2645 2646 2649 2652 2654 2655 2659 2663 2668 2674 2680 2685 2689 2695 2701 2706 2711 2716 2721 2726 2731 2736 2741 2746 2749 2753
2759 2759 2760 2760 2761 2760 2759 2758 2756 2755 2754 2753 2751 2749 2747 2745 2742 2739 2737 2734 2731 2728 2726 2722 2719 2716 2713 2710 2706 2703 2700 2697 2693 2689 2686 2682 2679 2675 2670 2665 2662 2659 2656 2654 2652 2651 2650 2650 2649 2650 2652 2655 2656 2658 2662 2666 2670 2675 2681 2685 2689 2694 2699 2704 2709 2714 2719 2724 2729 2734 2739 2743 2747 2750
2757 2757 2758 2759 2758 2758 2757 2756 2755 2754 2753 2752 2750 2748 2746 2744 2741 2739 2737 2734 2731 2728 2725 2722 2719 2716 2713 2710 2707 2704 2701 2697 2694 2690 2686 2683 2680 2676 2671 2667 2664 2661 2659 2656 2654 2653 2653 2653 2653 2654 2656 2658 2659 2662 2665 2668 2672 2677 2681 2685 2689 2693 2697 2702 2707 2712 2717 2722 2726 2731 2735 2739 2743 2747
2754 2755 2756 2756 2756 2756 2755 2754 2753 2753 2752 2751 2749 2747 2745 2742 2740 2738 2736 2733 2730 2727 2725 2722 2719 2717 2714 2711 2707 2704 2701 2698 2694 2691 2687 2683 2681 2678 2674 2670 2667 2664 2661 2660 2658 2657 2656 2656 2657 2657 2660 2662 2663 2665 2668 2671 2674 2679 2683 2686 2689 2693 2697 2701 2706 2710 2715 2719 2723 2727 2732 2737 2741 2746
2752 2753 2754 2754 2754 2754 2753 2752 2752 2752 2751 2750 2748 2746 2744 2742 2739 2737 2735 2733 2730 2728 2725 2723 2720 2717 2715 2712 2708 2705 2702 2698 2695 2692 2688 2685 2682 2680 2677 2674 2670 2667 2665 2663 2662 2661 2660 2660 2660 2661 2663 2665 2667 2669 2671 2674 2676 2680 2684 2687 2689 2692 2696 2701 2705 2709 2714 2718 2722 2726 2731 2735 2740 2744
2750 2751 2752 2752 2752 2752 2751 2751 2751 2751 2750 2748 2746 2745 2743 2741 2739 2737 2735 2733 2730 2728 2725 2722 2720 2718 2715 2712 2709 2706 2703 2699 2696 2692 2689 2686 2684 2682 2679 2676 2673 2671 2669 2667 2665 2664 2664 2664 2664 2665 2666 2668 2670 2672 2674 2677 2679 2681 2684 2687 2689 2692 2696 2700 2705 2709 2713 2717 2721 2725 2729 2733 2738 2742
2748 2749 2750 2751 2751 2751 2750 2750 2750 2749 2748 2747 2745 2744 2743 2741 2739 2737 2735 2733 2730 2728 2725 2722 2720 2717 2715 2712 2709 2707 2703 2700 2697 2694 2691 2688 2685 2683 2681 2679 2676 2674 2672 2670 2669 2668 2667 2667 2668 2668 2668 2670 2672 2674 2676 2679 2681 2683 2686 2688 2690 2693 2696 2700 2703 2707 2712 2716 2720 2723 2727 2731 2735 2739
2747 2748 2748 2749 2749 2749 2749 2749 2749 2748 2747 2746 2745 2744 2742 2741 2739 2737 2735 2733 2730 2728 2725 2723 2720 2717 2715 2712 2710 2707 2704 2702 2699 2696 2694 2690 2687 2685 2683 2681 2678 2676 2675 2673 2671 2670 2670 2670 2670 2671 2672 2673 2674 2676 2678 2681 2683 2685 2688 2690 2691 2693 2696 2699 2702 2706 2710 2713 2717 2721 2725 2729 2733 2737
2745 2746 2747 2747 2748 2748 2748 2748 2747 2747 2746 2745 2744 2743 2742 2740 2739 2737 2735 2733 2730 2728 2725 2723 2720 2718 2715 2713 2710 2708 2705 2703 2700 2697 2695 2692 2690 2687 2685 2682 2680 2679 2677 2675 2674 2673 2672 2672 2673 2673 2674 2676 2677 2678 2680 2683 2684 2687 2689 2691 2692 2694 2697 2699 2701 2704 2708 2712 2716 2720 2724 2727 2731 2735
2744 2745 2745 2746 2746 2746 2747 2747 2746 2746 2745 2744 2744 2743 2742 2740 2738 2737 2735 2732 2730 2728 2725 2723 2720 2718 2716 2714 2711 2709 2706 2704 2701 2699 2696 2694 2691 2689 2686 2684 2682 2681 2679 2678 2677 2676 2675 2674 2674 2675 2675 2677 2679 2680 2682 2684 2686 2688 2690 2692 2693 2695 2698 2700 2702 2704 2707 2711 2714 2718 2721 2725 2729 2732
2742 2743 2744 2744 2745 2745 2745 2745 2745 2745 2744 2744 2743 2742 2741 2740 2738 2736 2734 2732 2730 2728 2726 2723 2721 2719 2716 2714 2712 2709 2707 2705 2702 2700 2697 2695 2692 2690 2688 2686 2684 2683 2681 2680 2679 2678 2677 2676 2676 2676 2677 2678 2680 2681 2683 2685 2686 2688 2690 2692 2694 2696 2698 2701 2703 2705 2707 2710 2713 2716 2720 2723 2727 2730
2741 2742 2743 2743 2743 2744 2744 2744 2744 2744 2743 2743 2742 2742 2741 2739 2738 2736 2734 2732 2730 2729 2726 2724 2721 2719 2717 2715 2712 2710 2708 2705 2703 2700 2698 2696 2694 2692 2690 2688 2686 2685 2683 2682 2681 2680 2679 2678 2678 2678 2678 2679 2680 2682 2683 2685 2687 2688 2690 2692 2694 2696 2699 2701 2703 2705 2707 2709 2711 2714 2717 2721 2724 2727
2739 2740 2741 2742 2742 2743 2743 2743 2743 2743 2743 2742 2742 2741 2740 2738 2737 2735 2734 2732 2730 2729 2727 2724 2722 2720 2717 2715 2713 2711 2709 2707 2704 2702 2700 2697 2695 2693 2691 2690 2688 2687 2685 2684 2683 2682 2681 2680 2680 2680 2680 2680 2681 2682 2684 2685 2687 2688 2690 2692 2694 2696 2698 2700 2702 2705 2707 2709 2711 2713 2716 2719 2722 2725
2738 2739 2740 2740 2741 2741 2742 2742 2742 2742 2742 2741 2741 2740 2739 2737 2736 2735 2733 2732 2730 2728 2727 2725 2722 2720 2718 2716 2714 2712 2710 2708 2706 2704 2702 2699 2697 2695 2693 2691 2690 2688 2686 2685 2684 2683 2683 2682 2682 2682 2682 2682 2682 2683 2684 2685 2686 2688 2690 2692 2694 2696 2697 2699 2702 2704 2706 2708 2710 2713 2715 2717 2719 2722
2736 2737 2738 2739 2740 2740 2740 2741 2741 2741 2741 2740 2740 2739 2738 2737 2736 2734 2733 2731 2730 2728 2726 2724 2723 2720 2718 2716 2714 2712 2710 2708 2707 2705 2703 2701 2699 2697 2695 2693 2691 2689 2688 2687 2686 2685 2685 2684 2684 2684 2683 2683 2683 2684 2685 2685 2686 2688 2689 2691 2693 2695 2697 2699 2701 2703 2705 2707 2709 2712 2713 2715 2717 2720
2735 2736 2737 2738 2738 2739 2739 2740 2740 2740 2740 2739 2739 2738 2737 2736 2735 2734 2732 2731 2729 2728 2726 2724 2722 2720 2718 2716 2714 2712 2710 2709 2707 2705 2703 2702 2700 2698 2696 2695 2693 2691 2690 2689 2688 2687 2686 2686 2685 2685 2685 2685 2685 2685 2686 2686 2687 2688 2689 2690 2692 2694 2696 2697 2699 2701 2703 2705 2708 2710 2712 2713 2716 2719
2733 2734 2735 2736 2737 2737 2738 2738 2739 2739 2739 2738 2738 2737 2736 2735 2734 2733 2731 2730 2729 2727 2726 2724 2722 2720 2718 2716 2715 2713 2711 2709 2707 2705 2704 2702 2700 2699 2697 2696 2695 2694 2692 2691 2690 2689 2688 2687 2686 2686 2686 2686 2686 2686 2686 2687 2687 2688 2689 2689 2691 2692 2694 2696 2697 2699 2702 2703 2705 2708 2710 2712 2714 2717
Wind_Speed
34 34 34 35 35 36 38 39 40 40 40 41 42 43 43 45 47 48 46 36 24 19 18 20 23 25 30 33 34 33 32 31 31 31 32 35 35 34 34 34 34 33 32 32 32 34 37 40 45 48 51 53 55 57 55 53 58 65 70 74 77 74 67 61 58 59 64 66 67 59 46 49 66 75
34 34 34 34 35 36 37 38 39 40 40 40 41 41 41 41 43 45 46 38 25 18 19 20 24 26 29 33 33 31 31 30 31 32 32 34 34 34 33 32 34 34 33 33 32 32 35 38 44 48 51 53 55 57 57 53 55 61 65 69 71 71 69 65 60 57 60 65 69 67 55 49 59 71
34 34 34 34 35 36 37 38 39 39 39 39 39 39 39 39 41 42 43 39 27 21 22 21 23 27 29 32 31 30 31 31 31 33 33 32 32 32 32 32 32 33 33 33 32 30 32 35 41 47 49 52 54 56 57 54 53 57 62 65 66 66 66 64 62 59 60 64 67 68 59 49 55 66
34 34 34 34 34 36 36 37 38 38 38 38 38 38 37 38 39 39 40 39 30 24 25 24 23 26 29 30 30 29 30 31 32 33 32 31 30 30 30 31 31 32 33 33 32 30 30 33 38 44 47 50 53 55 57 54 52 55 59 62 63 64 63 62 63 62 62 63 65 68 62 50 50 59
33 34 33 33 34 35 36 36 37 37 37 37 37 37 36 37 38 37 37 39 32 24 24 27 25 25 29 30 29 29 31 32 32 32 32 31 31 29 28 28 28 30 31 32 32 31 30 31 35 41 46 49 52 55 57 56 52 53 57 61 62 62 61 60 62 64 65 66 65 67 66 55 47 52
33 33 33 33 33 35 36 36 37 36 36 36 35 35 36 37 38 36 35 37 34 27 24 27 27 26 29 30 29 30 33 33 33 32 32 33 32 30 28 27 26 27 30 31 31 31 31 31 33 38 44 49 52 55 57 57 54 53 55 59 61 61 60 59 61 64 68 71 72 71 70 61 50 48
32 32 32 32 33 34 35 35 36 36 35 35 34 34 35 36 37 35 34 35 35 31 25 26 29 27 29 31 30 32 34 34 34 33 33 33 32 30 28 27 26 26 28 29 31 31 32 32 33 37 42 47 52 54 57 57 55 54 54 57 60 60 60 59 59 62 66 72 77 78 76 69 55 48
31 31 31 32 33 34 34 34 35 35 35 34 33 34 35 36 37 35 34 33 34 33 27 26 30 30 30 31 30 32 35 35 35 34 34 32 30 29 28 28 27 26 26 28 30 31 32 33 33 36 40 46 51 54 56 56 55 54 54 56 59 59 59 59 58 60 63 68 74 77 80 77 66 52
30 30 30 31 32 33 33 34 34 35 34 33 32 33 34 35 36 35 34 33 34 34 30 28 30 30 30 32 31 32 35 36 36 35 34 32 30 29 27 28 28 27 27 27 29 31 32 33 33 35 39 44 49 53 55 56 55 55 55 56 57 57 58 59 59 60 60 62 68 73 77 79 76 66
30 29 29 31 31 32 33 33 34 34 33 32 32 33 34 34 35 35 34 34 34 33 33 31 31 30 31 32 31 32 34 36 37 37 35 32 30 30 29 28 28 28 29 29 29 30 32 34 34 35 38 42 48 52 55 56 55 56 56 56 56 55 56 59 60 61 59 58 62 68 74 75 77 78
29 28 28 30 30 31 32 32 33 33 33 32 32 32 33 33 34 34 34 34 34 33 33 32 31 31 31 31 32 33 33 34 36 37 39 35 32 32 32 29 29 29 31 32 31 32 33 34 36 35 37 41 46 51 55 56 55 56 56 56 56 54 55 57 59 59 58 57 58 61 69 73 74 80
28 27 27 29 30 30 30 31 32 33 32 32 32 32 32 33 33 34 34 34 34 33 33 31 30 31 31 31 33 33 33 34 35 35 37 38 34 34 34 31 30 32 33 33 33 33 34 35 37 37 37 39 44 49 54 56 55 56 57 56 56 54 53 55 58 58 56 55 57 59 63 70 73 79
27 27 27 28 29 29 29 29 31 32 32 32 32 32 32 32 33 34 34 33 33 33 33 31 30 31 32 32 33 34 33 35 37 35 35 36 34 34 35 33 32 34 35 35 33 34 36 36 37 38 38 39 43 48 53 56 56 56 57 57 56 54 53 54 55 56 56 54 55 58 60 67 73 77
26 25 26 27 28 28 27 28 29 31 31 31 32 33 33 33 34 35 35 33 33 33 33 31 30 30 33 33 33 35 35 35 37 37 35 34 33 33 36 36 32 32 34 34 32 33 36 38 38 38 39 39 42 48 52 56 57 57 58 57 56 55 53 53 54 54 56 54 54 57 59 65 72 75
25 24 25 26 27 27 26 26 28 30 30 30 31 32 32 33 34 36 36 34 33 34 33 31 31 31 33 35 34 35 37 37 37 36 34 33 33 33 35 36 31 27 29 30 29 29 34 38 38 38 39 39 42 47 51 55 57 57 58 57 56 56 53 53 53 52 54 54 52 55 58 63 71 74
24 23 24 25 26 25 25 26 27 29 29 29 29 30 31 31 32 35 35 34 33 34 33 32 32 33 34 35 35 35 38 39 37 35 32 32 32 32 33 34 31 26 26 29 28 26 30 37 39 37 38 39 42 46 51 55 58 58 59 58 56 56 54 52 52 52 52 53 51 52 57 61 67 72
23 22 23 25 25 24 24 25 27 28 27 27 28 28 29 29 31 32 33 32 33 34 34 34 34 33 34 36 36 36 38 40 38 35 32 30 31 31 32 33 31 28 28 31 31 27 25 33 40 37 36 39 42 46 50 54 58 58 59 58 56 55 55 52 51 51 51 52 51 50 54 59 62 67
22 22 23 24 23 22 22 24 26 27 26 26 26 27 28 28 29 30 31 31 32 33 34 35 35 33 34 36 37 37 38 39 38 36 33 32 31 32 32 33 33 31 31 34 35 29 23 27 36 37 35 38 42 45 50 54 58 59 58 58 57 55 55 53 51 51 51 50 51 51 51 55 58 62
21 21 22 22 21 21 21 23 25 26 25 25 25 26 27 27 27 28 29 29 29 31 32 33 33 33 33 35 36 37 37 37 37 36 34 33 34 33 33 32 31 31 32 35 38 33 24 24 31 35 35 38 41 45 50 54 57 59 58 57 57 55 55 54 50 50 51 49 50 51 50 51 54 57
21 21 21 21 20 19 20 22 24 25 25 24 24 25 26 26 25 25 26 27 27 29 30 31 32 33 34 34 36 37 37 36 37 36 33 34 35 36 35 31 27 28 30 34 38 35 25 23 28 33 35 37 41 44 49 54 57 59 59 57 56 55 54 53 51 50 50 49 49 50 49 49 50 53
21 20 20 19 18 18 19 21 23 24 24 23 24 25 25 25 24 23 22 24 25 27 29 30 32 33 34 34 35 35 35 35 36 36 34 34 36 37 36 30 24 25 28 30 33 32 26 24 26 31 34 36 40 44 49 53 56 58 58 56 56 56 54 52 51 49 49 49 49 49 49 47 47 49
20 20 19 17 16 16 18 21 22 22 22 23 24 25 25 24 24 21 19 20 22 24 27 29 31 32 33 33 33 33 33 34 35 36 34 34 36 38 34 27 23 25 28 29 28 26 22 21 22 26 31 34 37 42 47 52 55 57 57 56 55 55 55 52 50 50 49 48 48 48 48 47 45 46
19 19 18 16 15 15 17 19 20 20 21 22 22 24 24 23 22 21 19 19 20 22 24 26 27 28 28 30 30 30 32 33 34 34 34 33 36 38 30 22 21 23 26 27 24 20 16 14 16 20 27 31 35 39 45 50 54 56 56 55 55 54 55 53 50 50 49 48 48 48 48 48 46 46
17 18 17 15 14 15 17 17 18 18 20 21 21 22 23 23 23 22 20 20 20 21 21 21 22 23 23 24 26 28 30 33 33 33 32 32 36 38 29 19 18 19 19 20 18 13 11 12 13 17 22 27 32 38 44 48 52 55 54 54 55 54 54 53 51 50 49 48 48 48 48 48 48 47
16 17 16 13 13 14 16 16 16 17 18 19 20 21 22 22 23 21 19 18 18 19 19 19 19 20 20 22 25 27 29 31 32 32 31 32 36 38 30 19 16 15 13 13 13 11 10 9 11 14 18 22 29 35 42 48 52 54 54 53 54 54 53 52 51 50 49 49 48 48 48 48 48 47
15 16 14 12 12 13 14 14 14 15 16 18 18 19 20 20 20 19 18 17 17 18 19 20 20 20 21 22 23 25 26 29 31 32 31 32 35 37 30 20 16 14 11 13 13 12 10 8 7 11 14 18 25 32 40 46 50 53 53 53 53 53 53 52 51 50 49 49 48 48 47 47 47 47
15 15 13 11 11 12 12 12 13 14 15 16 17 17 18 18 18 19 19 18 19 20 21 22 22 21 21 21 21 22 24 26 29 31 31 32 35 34 28 20 16 14 11 9 11 10 8 6 4 8 12 16 22 29 37 44 47 50 52 52 52 52 51 50 51 50 48 48 48 46 46 46 46 47
15 14 11 10 11 11 11 11 11 13 14 14 15 16 16 17 18 19 20 20 20 21 21 21 22 21 21 21 21 22 23 25 27 29 29 32 34 33 26 20 15 11 7 6 8 7 4 1 2 8 12 14 18 25 33 40 44 46 49 51 50 51 50 49 49 49 47 47 47 46 46 46 45 46
14 12 10 10 11 10 9 10 10 12 13 13 14 15 15 16 17 18 20 21 21 22 22 22 22 23 23 23 23 24 25 25 26 26 26 28 31 31 27 22 18 12 8 9 10 6 1 6 9 13 15 15 16 22 30 36 38 39 42 47 49 48 48 47 47 47 46 46 47 46 45 44 43 44
13 11 10 10 10 8 8 9 9 10 12 12 13 14 14 15 16 17 19 19 20 21 22 22 23 24 25 25 25 25 25 25 25 24 23 23 27 30 29 25 22 18 13 11 11 5 3 6 10 15 18 17 18 23 28 31 30 28 31 38 43 45 45 44 44 45 44 44 45 44 43 42 42 41
12 10 10 10 9 7 7 8 9 10 11 11 12 13 14 15 16 17 17 19 20 21 22 23 23 24 25 25 25 25 24 24 24 24 23 22 24 29 29 25 23 21 15 9 10 9 5 8 12 17 18 18 21 25 29 30 27 23 25 29 34 39 42 41 41 43 43 43 43 44 43 43 42 40
11 10 10 9 7 6 6 7 8 9 10 11 12 13 14 15 16 17 18 19 20 21 21 22 22 23 23 23 24 25 25 23 23 23 22 21 21 25 27 24 21 20 16 10 8 10 10 10 16 20 20 19 20 23 28 29 25 22 25 26 28 33 37 39 40 42 42 42 43 43 43 42 41 39
11 11 10 8 7 6 6 6 8 9 10 10 11 13 14 15 16 17 18 18 19 19 20 21 21 21 22 22 22 24 24 24 24 23 22 20 19 20 23 22 19 16 16 14 10 9 9 9 15 20 20 18 17 18 23 26 24 23 26 28 29 33 37 38 39 40 41 42 42 42 42 41 40 38
11 10 9 8 6 5 5 6 7 9 10 10 12 13 14 15 16 16 17 17 18 19 19 20 21 21 21 21 21 21 22 23 24 24 23 21 18 16 18 20 19 15 13 13 12 9 7 6 9 14 17 18 17 16 17 20 22 25 30 32 33 36 38 38 38 39 40 41 41 41 42 41 40 39
11 10 9 7 6 4 4 5 7 8 9 10 12 13 13 14 15 15 16 17 17 18 19 20 21 22 21 21 21 21 21 22 23 23 23 22 19 16 15 17 19 18 14 12 12 10 8 6 5 7 12 17 20 19 17 17 16 18 23 26 29 33 35 36 36 38 39 41 41 41 42 41 41 39
11 10 9 7 6 4 4 5 6 8 9 10 11 12 12 13 14 15 15 16 16 18 19 19 20 21 22 22 22 22 21 21 20 20 21 21 20 17 15 14 16 18 18 16 13 11 10 9 7 5 8 16 21 21 20 20 16 14 15 17 20 24 28 32 34 36 38 40 41 41 41 41 40 39
11 10 10 8 6 5 4 5 6 7 9 9 10 11 12 13 13 14 14 15 16 17 19 20 20 21 22 22 22 22 22 21 20 20 19 19 19 17 15 14 13 15 17 18 16 13 9 9 10 8 8 14 18 18 19 20 17 15 16 17 17 18 19 24 30 34 36 38 39 39 40 40 39 39
11 11 10 8 6 5 5 5 5 7 8 9 10 10 11 12 13 14 15 16 16 17 18 19 20 21 21 21 21 21 22 22 21 20 18 17 18 17 16 15 15 14 14 16 16 15 11 7 9 11 10 12 13 14 16 18 19 19 20 18 18 19 20 20 23 27 31 35 37 38 40 40 39 38
11 11 11 9 7 6 5 4 5 6 7 9 10 10 10 12 12 13 15 16 16 17 18 18 19 20 21 21 22 21 21 22 21 21 20 18 18 18 17 16 16 14 12 11 11 12 12 8 6 10 12 12 12 12 13 15 17 22 25 23 20 20 22 23 22 22 26 31 35 36 38 39 39 39
12 12 11 9 7 6 5 4 5 6 7 8 10 10 10 11 12 13 14 15 16 16 17 17 18 19 20 21 21 22 22 22 22 22 21 21 19 18 18 16 15 14 12 9 7 7 9 8 5 6 9 11 12 13 14 13 14 19 24 25 24 23 23 23 23 23 23 26 30 33 35 36 38 39
12 12 11 10 8 6 6 5 5 6 7 9 10 11 11 12 13 13 14 15 15 16 16 17 17 18 19 20 20 20 21 21 22 21 21 21 21 20 18 16 14 12 11 8 5 4 4 6 7 6 7 10 11 12 12 13 15 17 19 21 24 26 25 23 23 24 23 24 27 29 31 33 35 36
13 13 13 11 9 8 6 5 6 7 8 9 10 11 12 12 13 13 13 14 15 15 15 16 16 17 18 19 19 20 20 20 20 21 20 20 20 20 19 17 14 12 11 10 8 6 6 7 8 6 6 8 8 8 8 10 13 16 17 16 18 22 25 24 23 24 25 25 26 27 28 30 32 34
13 13 13 12 10 9 7 6 6 7 8 9 10 11 12 13 13 14 14 14 14 15 15 16 16 16 17 18 18 19 20 19 19 19 20 20 20 19 19 19 18 16 15 14 13 12 10 7 6 5 5 6 7 6 6 7 9 13 17 17 16 18 22 25 24 24 25 25 26 27 29 30 31 31
13 13 14 13 11 10 9 7 7 8 8 9 10 11 12 13 13 14 14 14 15 15 15 16 16 16 17 17 18 18 19 19 19 19 19 20 20 20 20 19 18 18 17 16 15 14 11 8 6 4 3 4 5 5 5 6 8 11 15 19 18 17 19 23 24 24 25 25 26 26 26 28 29 28
14 14 14 14 13 11 10 9 8 8 8 9 10 11 12 13 14 14 15 15 15 15 15 15 16 16 16 16 17 17 18 18 19 19 19 19 19 19 19 18 17 16 16 15 15 14 12 10 8 6 3 2 4 5 5 6 7 9 12 16 19 19 19 21 23 24 24 25 26 27 26 26 27 28
Wind_Direction
295 296 298 300 302 303 304 306 307 309 310 311 313 313 312 313 317 317 319 327 331 320 308 293 292 300 301 301 301 301 300 300 302 305 305 304 300 295 289 281 276 271 268 266 262 257 250 241 235 231 229 228 226 226 228 224 222 222 220 221 223 224 226 227 228 230 231 232 230 225 226 220 211 208
294 295 296 298 301 302 304 306 308 309 310 312 312 312 313 313 315 313 312 323 333 318 307 302 297 300 302 301 301 301 301 301 303 305 304 301 298 295 292 285 278 273 268 266 264 258 251 243 236 232 229 227 227 226 228 226 223 223 222 222 223 223 224 225 226 227 229 232 232 228 229 225 214 209
292 293 295 297 300 302 304 306 308 309 309 311 311 312 313 312 312 309 306 314 327 317 304 304 301 302 302 301 302 303 303 304 303 303 302 299 296 293 291 288 281 275 270 266 265 259 252 245 237 233 230 228 227 226 228 228 224 224 224 222 223 223 222 223 224 227 228 230 233 230 229 229 220 213
290 291 294 297 300 301 303 305 307 308 308 310 311 312 313 311 309 306 302 306 318 317 306 304 305 305 303 303 307 306 304 304 303 303 305 305 301 294 289 288 284 278 273 267 264 261 253 246 239 234 231 228 227 226 227 228 224 223 224 223 222 223 222 221 221 225 226 227 230 229 227 228 225 221
288 290 293 297 300 300 302 305 306 307 308 309 312 313 312 310 308 304 301 304 311 313 306 305 306 307 307 306 310 309 306 307 308 309 313 313 309 300 291 288 286 281 276 269 264 260 254 248 240 234 231 228 226 226 226 228 224 222 223 223 222 222 221 220 219 222 224 224 226 226 225 225 225 223
286 288 292 296 298 300 302 304 305 306 308 310 312 313 311 309 307 304 300 303 308 309 305 305 307 309 309 309 311 312 310 312 316 318 320 317 312 305 295 289 289 284 279 272 265 260 254 248 242 236 232 228 227 225 225 227 225 221 222 222 222 221 219 220 220 222 225 226 227 226 223 224 223 222
284 286 291 295 297 299 302 304 305 305 307 310 312 312 311 308 306 304 301 301 306 308 304 304 307 308 310 311 312 313 314 318 323 322 319 317 312 307 299 291 289 286 282 275 267 261 254 249 243 237 233 229 226 225 224 226 225 222 221 222 223 221 219 220 221 223 227 228 229 229 225 223 222 220
283 285 290 295 296 298 301 303 304 305 307 310 312 311 310 307 306 305 301 300 303 305 304 302 305 308 311 312 314 316 319 323 325 320 315 313 310 305 300 293 289 284 281 276 270 263 256 251 245 238 234 229 226 225 224 225 225 222 221 222 223 223 220 219 221 223 227 229 230 231 228 225 222 220
281 284 288 293 295 297 301 302 303 305 307 309 311 311 309 307 306 305 302 299 300 304 304 301 303 308 310 312 316 321 322 324 322 316 311 310 307 302 297 293 290 284 279 274 269 264 257 252 247 240 235 230 226 225 223 223 224 222 220 221 222 223 221 219 220 222 226 230 231 232 230 227 225 223
278 282 286 291 294 296 300 302 303 305 306 309 311 310 309 307 307 306 302 299 298 301 301 298 301 307 310 314 320 323 322 322 321 316 310 307 304 299 295 292 290 286 280 273 266 262 256 251 248 242 236 231 227 224 223 222 222 221 220 221 222 223 220 219 221 223 225 228 231 232 231 229 227 226
276 279 284 290 293 296 299 301 303 304 305 308 311 310 308 307 307 306 302 297 296 299 299 298 302 305 310 318 321 321 321 320 321 316 310 306 302 297 294 292 291 287 281 275 265 259 254 249 247 243 237 232 227 224 222 221 221 220 219 220 222 223 221 219 220 222 223 226 228 230 232 231 229 227
274 277 283 288 291 294 298 300 302 303 305 308 311 310 307 307 308 307 303 298 298 301 300 300 303 305 311 320 319 318 320 320 319 317 310 307 303 297 294 293 293 288 281 275 267 259 254 248 245 242 237 232 227 224 222 220 220 219 218 219 221 223 221 220 221 221 221 222 225 227 230 231 230 228
272 276 282 287 289 293 297 299 301 302 305 309 311 310 308 308 310 310 307 303 301 303 302 302 305 306 312 318 318 318 321 320 319 318 313 309 306 300 295 294 295 292 285 277 268 259 254 249 245 241 237 231 227 224 221 219 218 218 217 217 219 221 220 219 220 221 220 221 223 226 229 230 231 230
270 275 282 286 288 292 295 298 301 302 306 310 311 311 310 311 313 312 310 306 303 304 305 304 306 309 312 315 317 319 321 320 319 318 315 312 310 305 299 296 297 294 288 282 270 257 251 248 245 241 236 231 227 223 220 218 217 217 216 216 218 219 220 218 218 220 220 220 221 224 228 229 230 231
269 274 281 285 287 291 295 298 301 304 308 311 310 310 311 312 313 312 311 309 305 305 306 306 308 311 311 312 318 321 321 320 318 317 317 316 313 310 304 301 303 299 290 285 275 259 248 245 244 241 236 232 227 222 219 217 216 216 215 215 215 217 218 217 217 218 219 220 221 222 226 229 229 231
268 274 280 284 286 290 295 299 301 304 308 311 310 310 310 310 310 309 309 307 304 305 307 308 309 311 310 312 319 322 319 317 318 318 319 318 316 315 312 308 310 306 293 287 282 268 250 242 242 240 235 231 227 222 218 216 215 214 214 214 214 215 217 216 216 217 218 219 220 221 224 228 229 230
267 274 279 283 286 291 296 299 302 305 308 310 310 309 310 309 309 308 307 304 302 304 307 307 308 310 311 314 319 321 317 316 319 320 319 320 321 322 322 317 314 308 296 291 289 280 260 244 240 237 233 230 227 222 217 215 214 213 213 213 212 213 215 215 215 215 216 218 219 220 222 226 228 229
266 273 278 281 286 292 297 299 302 306 309 311 311 311 310 309 309 308 304 301 298 299 302 303 306 310 313 315 318 319 315 315 320 322 323 325 326 325 324 319 312 304 295 291 291 286 272 251 240 235 231 229 225 221 217 213 212 212 212 211 211 211 213 214 213 213 215 216 217 219 221 224 227 229
266 272 276 280 286 292 297 300 304 307 310 313 314 313 311 310 310 307 301 297 294 293 296 300 305 309 313 316 317 315 314 317 323 325 327 329 327 324 322 315 307 300 292 288 290 288 280 265 247 234 228 227 224 219 216 212 210 211 211 210 209 209 211 212 211 211 212 214 216 218 220 221 224 228
266 271 275 280 285 293 298 302 306 308 312 317 316 314 312 312 312 309 301 296 293 293 298 303 308 311 314 315 314 313 315 321 326 327 329 330 328 324 322 313 302 299 293 289 292 292 287 279 259 237 226 224 221 217 213 211 209 209 209 209 207 208 210 211 210 209 210 211 214 217 219 220 222 225
265 270 275 279 287 296 302 303 306 309 315 320 319 316 316 317 316 313 303 296 295 299 304 308 310 312 313 312 312 313 318 325 328 329 330 330 329 326 322 312 298 296 299 299 299 295 288 281 262 238 226 221 218 214 211 208 207 207 207 207 206 206 208 210 209 208 208 209 211 214 217 218 219 221
265 270 275 281 290 299 303 304 307 312 318 323 321 319 320 320 320 319 309 301 302 304 306 307 307 308 309 309 312 316 322 328 330 330 329 330 331 330 325 315 301 295 301 308 306 295 284 276 261 242 229 221 215 212 209 206 205 205 205 205 204 204 207 208 207 207 207 207 208 211 214 216 216 217
266 271 276 283 293 300 302 304 309 316 322 325 323 321 323 324 325 326 320 312 308 304 302 302 301 303 305 308 314 320 325 330 331 329 328 330 333 334 330 321 310 302 305 314 312 295 278 266 256 246 234 221 213 208 205 203 203 203 203 203 202 203 206 207 206 206 206 205 206 207 210 214 215 215
266 270 275 283 293 299 302 304 312 321 325 326 325 325 328 332 335 333 326 318 311 305 302 301 301 304 308 312 320 326 328 330 331 329 329 332 334 337 337 331 322 314 312 324 331 315 283 257 244 244 235 222 212 205 202 200 199 199 199 200 200 202 205 206 205 205 205 204 204 205 207 211 213 214
264 267 273 282 292 298 301 307 318 324 326 327 329 332 337 340 339 336 330 321 313 308 309 312 313 317 322 325 330 332 331 330 331 330 332 334 337 340 343 340 335 326 311 319 344 350 325 285 245 237 235 222 210 203 199 198 197 195 195 196 198 201 204 204 204 205 205 203 203 204 205 208 211 213
262 265 269 280 290 296 301 311 321 325 328 332 335 339 342 342 340 339 335 329 325 323 326 331 334 335 336 336 334 333 332 332 333 334 334 336 340 345 348 350 349 341 318 304 314 330 331 309 247 225 227 218 207 200 198 196 194 192 192 193 196 200 203 203 203 205 205 203 203 203 203 206 209 210
257 261 266 279 288 293 301 313 321 328 333 337 338 339 340 342 343 343 343 342 343 344 345 346 346 344 342 341 337 335 336 337 339 339 336 337 345 351 355 359 355 350 348 335 328 330 321 299 242 206 210 208 201 197 195 193 191 190 189 190 195 200 202 202 203 204 205 204 203 203 203 204 207 208
253 257 265 278 285 290 301 315 325 334 338 337 335 336 338 342 345 346 349 352 353 354 353 352 351 349 347 346 343 341 343 346 346 344 339 340 348 356 1 5 359 349 349 346 339 336 325 316 142 165 178 184 186 189 191 189 187 187 188 189 194 199 202 201 202 204 205 204 204 203 203 203 205 206
248 254 265 274 279 287 303 320 331 339 340 334 332 335 339 343 347 350 352 354 354 355 355 355 355 355 354 353 352 350 350 351 350 348 344 342 348 355 1 5 5 356 340 337 342 338 75 99 111 139 148 152 168 180 184 184 182 183 188 190 193 198 201 201 201 204 205 205 204 204 203 203 205 207
245 252 261 267 274 287 306 325 337 340 338 334 333 338 344 348 353 354 353 353 353 354 355 357 360 0 359 359 358 356 354 352 351 351 350 347 349 355 360 4 6 6 1 1 9 21 136 115 118 138 142 143 158 168 170 170 169 174 186 192 193 197 200 201 201 203 205 205 204 204 204 203 204 207
240 247 255 261 272 290 308 327 341 341 337 335 337 343 349 354 357 357 353 352 355 356 356 359 2 2 2 1 0 359 358 356 355 354 354 354 353 356 1 2 4 12 20 21 19 32 80 126 133 135 135 143 155 158 156 154 154 164 180 188 192 197 199 199 200 202 203 205 204 204 204 204 204 206
236 244 252 258 270 291 310 332 343 338 333 337 343 348 354 358 359 358 356 355 357 357 357 0 2 2 2 3 2 1 359 359 360 359 359 359 357 358 3 4 4 14 31 42 30 33 60 112 135 133 129 136 146 152 155 153 151 162 175 181 190 196 197 198 200 200 201 203 204 205 205 205 204 205
232 240 248 255 267 289 315 336 339 332 330 341 351 354 357 1 0 358 357 356 356 355 357 0 3 3 3 4 5 5 2 1 2 3 3 3 2 1 4 9 11 15 29 43 43 35 46 91 126 130 127 129 135 144 156 160 162 168 172 176 186 193 195 198 199 199 200 202 203 204 205 206 206 205
229 236 243 249 261 287 317 331 330 326 331 346 356 357 359 1 0 358 356 355 354 355 357 359 3 4 4 3 5 8 8 6 5 4 4 4 6 5 5 12 21 25 29 41 47 47 48 71 113 127 130 134 137 138 148 162 171 177 178 182 190 194 195 197 199 199 199 201 203 204 205 206 207 205
227 232 239 246 257 280 309 321 322 325 335 350 358 358 358 0 360 358 357 356 355 356 358 359 2 5 5 5 6 7 11 12 10 8 6 4 6 9 9 11 20 28 33 44 53 62 73 85 109 135 144 145 143 141 147 160 173 183 185 191 199 199 196 197 199 199 199 199 201 203 204 205 206 206
226 230 234 241 252 269 295 312 318 329 340 351 358 357 355 358 359 357 357 357 357 358 360 1 3 5 5 6 7 7 9 13 13 11 11 9 8 12 15 13 15 22 30 40 50 59 77 100 117 139 159 155 148 147 154 161 167 172 174 186 202 203 199 199 199 199 199 199 200 201 203 204 206 206
224 228 231 236 245 259 284 304 317 333 342 348 354 355 352 354 357 355 355 359 0 0 2 4 5 6 6 6 8 8 8 10 13 13 14 15 13 14 19 21 18 19 26 34 41 47 63 101 125 135 153 158 156 155 157 160 165 167 165 173 189 191 191 199 202 200 200 200 199 200 202 203 204 205
222 225 229 232 239 253 275 298 317 333 340 342 348 351 350 351 354 354 355 359 1 0 2 4 4 5 6 7 8 9 9 10 11 11 14 18 19 18 21 23 22 21 23 27 31 35 42 76 129 144 150 155 159 164 166 166 171 176 175 182 192 184 176 186 198 201 202 201 200 200 201 201 203 204
222 224 227 227 231 247 267 291 314 327 333 337 340 345 347 348 352 355 356 358 359 358 359 2 3 4 5 6 8 9 10 11 11 11 12 16 20 23 24 24 23 22 22 23 24 26 28 40 105 145 153 155 159 169 176 176 179 181 181 185 193 191 184 185 189 193 199 203 202 202 201 201 202 203
221 224 226 225 226 241 261 282 306 316 323 330 334 337 343 347 351 355 357 357 356 356 357 359 0 2 3 4 6 8 10 11 11 12 13 14 16 20 24 25 24 21 18 18 18 17 21 31 65 135 158 163 165 173 184 191 191 187 182 181 183 187 191 194 193 192 197 204 205 203 203 203 203 204
220 222 224 224 224 234 253 273 292 305 315 323 327 332 339 345 349 352 355 355 354 353 355 356 358 359 360 1 3 5 8 10 11 12 14 14 14 16 19 21 25 27 23 20 18 12 27 47 65 104 149 162 163 168 181 193 197 192 187 185 187 190 195 200 199 194 196 204 208 207 207 207 206 206
217 220 222 222 223 229 243 262 277 292 307 317 322 329 336 342 346 348 350 351 351 351 352 354 355 357 358 359 0 2 4 7 8 10 13 15 15 15 16 15 18 26 31 33 37 41 49 58 63 78 118 143 148 152 168 186 193 193 193 195 197 196 196 200 201 198 198 202 205 206 210 212 211 208
218 222 223 222 223 227 235 252 267 281 298 310 317 325 331 336 341 344 345 347 348 349 351 352 353 355 357 357 358 359 1 3 4 5 9 12 13 15 16 16 16 19 22 24 29 34 38 44 51 66 98 119 127 136 156 178 190 194 196 199 203 200 194 193 196 200 205 208 209 210 214 218 217 214
217 220 223 223 223 226 232 246 261 273 290 304 313 320 326 331 336 339 341 344 346 347 349 350 350 353 356 356 357 358 357 358 1 2 4 6 8 11 14 15 16 17 17 16 17 20 23 31 42 53 83 121 136 138 148 168 184 191 192 194 198 203 202 199 197 198 203 208 211 214 218 219 216 216
216 217 222 224 224 226 232 242 256 269 282 296 307 314 320 325 331 334 337 341 343 344 345 347 348 351 353 354 355 356 355 355 358 359 0 1 2 4 6 8 11 14 15 14 10 8 11 18 21 18 27 133 166 167 162 166 174 183 189 190 190 195 205 209 206 203 203 204 205 209 215 216 213 213